Location: ???? ????
(41.4149°N, 22.8816°E)
Time: 14:21:16
(UTC+00:00)

MOZ.5/SAFIR/RUBIN 5/SL-8 - Pass Details

Date: 14 July 2020
Orbit: 678 x 705 km, 98.1° (Epoch: 03 August)

Event Time Altitude Azimuth Distance (km) Brightness Sun altitude
Exits shadow 00:25:51 49° 247° (WSW) 901 4.0 -21.9°
Maximum altitude 00:26:09 50° 260° (W) 892 4.0 -21.8°
Drops below altitude 10° 00:30:48 10° 336° (NNW) 2,181 6.8 -21.4°
Sets 00:33:09 0° 342° (NNW) 3,105 7.8 -21.2°
